STARLINK-3157, 49413

Orbit data source: Space-Track

STARLINK-3157, 49413 is a payload satellite owned by SpaceX/Seattle (US) in LEO that was launched on Sat, 13 Nov 2021 UTC via an FALCON 9 launch vehicle from the Air Force Eastern Test Range (AFETR). Payload-class satellites include a variety of spacecraft equipped with specific instruments for various scientific and technological missions. These include communications satellites like Starlink; space stations such as the ISS; scientific satellites like the Hubble; Earth observation satellites from companies like Planet Labs, Umbra, and HawkEye 360; GPS; miniature CubeSats for education and research; and military/defense satellites.

Loading next visibility...
Identifier
49413, 2021-104F
Orbit
LEO
Country
Flag of USUS
Related business
Manufacturer
SpaceX/Seattle
Mission
Operational Commercial Communications
Bus & Motor
STARLINK, Unknown motor
Mass
290 kg wet, ~270 kg dry
Launch date (UTC)
2021-11-13 (5 years ago)
Launch vehicle
FALCON 9
Launch site
Air Force Eastern Test Range (AFETR)
Object type
Payload
Rocket body
Debris
Shape & HBR
Box + 1 Pan, 10.1 m
Radar Cross Section
13.562 m², Large (>1 m²)

Expand to show TLE details & history
Last TLE update: 1 week ago

TLE from 1 week ago
0 STARLINK-3157
1 49413U 21104F   26154.62349785  .00000051  00000-0  21286-4 0  9990
2 49413  53.1822 193.3347 0001114  70.6516 289.4596 15.08835900251747
Epoch: 2026-06-03T14:57Z
TLE epoch observation values (Epoch: 2026-06-03T14:57:50.214Z)
Latitude
-0.00002°
Longitude
76.79601°
Altitude
540.393 km
Speed
7.594 km/s
True Right ascension
12h 53m 20s
True Declination
0° 00' 00"
Sunlit
Object was in full shadow at epoch
Visualization orbit readout
Latitude
Unknown
Longitude
Unknown
Altitude
Unknown
Speed
Unknown
Apparent Right ascension
Unknown
Apparent Declination
Unknown
Sunlit
N/A
Visualization observer readout
Local Sidereal Time
16:14:48
Azimuth
Unknown
Elevation
Unknown
Doppler factor
Unknown
Orbital elements
Apogee altitude
540.777 km
Perigee altitude
539.236 km
Semi-major axis
6,918.143 km
Eccentricity
0.00011
Inclination
53.1822°
RAAN
193.3347°
Arg. of periapsis
70.6516°
True anomaly
289.44756°
Mean anomaly
289.4596°
Eccentric anomaly
289.45358°
Mean motion
3.77189 °/min
Orbital period
95.44 mins
BSTAR
0.000021286
Loading maneuver chart data...
Computing Atmospheric mass density...
Loading historical data...
Loading historical data...
Loading historical data...
Loading historical data...
Loading historical data...
Loading historical data...
Loading historical data...

Documentation

Showing up to 5 results
|